Notices

What's New in latest Release from April 7th, 2021:

- Updated Glossary, including Speed of Maximum Gust, and Total Hourly Precipitation

- Updated national and regional climate services offices contacts and prices information

- Addition of station inventory lists for 1981-2010, 1971-2000, and 1961-1990 Normals.

If you haven't already, please take our survey and provide feedback about our website: https://eccc.sondage-survey.ca/f/LanguageSelection.aspx?s=442ca660-fcf1-47c0-95a9-59707d6fd709

Hourly Data Report for April 27, 2018

CLYDE RIVER A
NUNAVUT
Current Station Operator: NAVCAN

70°29'09.000" N
68°31'01.000" W
26.50 m
2400804
71090
YCY

Download Data

Hourly Data (April 2018)
Hourly Data Report for April 27, 2018
TIME
LST
Temp Definition
°C
Dew Point Definition
°C
Rel Hum Definition
%
Precip. Amount Definition
mm

Wind Dir Definition
10's deg

Wind Spd Definition
km/h
Visibility Definition
km
Stn Press Definition
kPa
Hmdx Definition


Wind Chill Definition


Weather Definition


00:00 -17.9 -20.0 84 0.0 31 41 1.2 100.18   -31 Snow,Blowing Snow
01:00 -18.1 -20.4 82 0.0 30 39 1.2 100.13   -31 Snow
02:00 -18.0 -20.0 85 0.0 31 45 0.4 100.03   -32 Heavy Snow,Blowing Snow
03:00 -17.6 -19.6 85 0.0 31 54 0.2 99.94   -33 Heavy Snow,Blowing Snow
04:00 -17.6 -19.6 85 0.0 32 58 0.2 99.86   -33 Heavy Snow,Blowing Snow
05:00 -17.4 -19.4 85 0.0 31 59 0.2 99.83   -33 Heavy Snow,Blowing Snow
06:00 -16.9 -18.9 85 0.0 31 59 0.2 99.78   -32 Heavy Snow,Blowing Snow
07:00 -16.5 -18.5 85 0.0 31 61 0.2 99.73   -32 Heavy Snow,Blowing Snow
08:00 -15.8 -17.9 84 0.0 32 61 0.4 99.70   -31 Heavy Snow,Blowing Snow
09:00 -15.5 -17.6 84 0.0 32 61 0.2 99.63   -30 Heavy Snow,Blowing Snow
10:00 -14.9 -17.1 84 0.0 32 54 0.4 99.63   -29 Heavy Snow,Blowing Snow
11:00 -14.0 -16.7 80 0.0 30 24 2.8 99.67   -24 Snow
12:00 -13.3 -16.5 77 0.0 31 22 2.8 99.63   -22 Snow
13:00 -13.3 -16.1 80 0.0 34 13 14.5 99.61   -20 Snow
14:00 -13.0 -15.9 79 0.0 8 5 4.8 99.58   -16 Snow
15:00 -11.8 -15.3 75 0.0 21 11 16.1 99.53   -18 Snow
16:00 -11.8 -16.6 68 0.0 20 18 16.1 99.48   -20 LegendNANA
17:00 -12.7 -17.4 68 0.0 20 24 16.1 99.45   -22 LegendNANA
18:00 -13.1 -18.4 65 0.0 20 22 16.1 99.39   -22 LegendNANA
19:00 -14.1 -18.8 68 0.0 21 18 16.1 99.32   -23 LegendNANA
20:00 -18.5 -20.5 85 0.0 LegendMM 4 16.1 99.27   -22 LegendNANA
21:00 -19.6 -21.7 84 0.0 33 8 16.1 99.20   -26 LegendNANA
22:00 -21.2 -24.0 79 0.0 28 5 16.1 99.12   -26 LegendNANA
23:00 -21.8 -25.0 76 0.0 29 5 16.1 99.09   -26 LegendNANA

Notes on Data Quality.

Legend

  • E = Estimated
  • M = Missing
  • NA = Not Available*
  • [empty] = Indicates an unobserved value
Date modified: